Location: Oberwesel
(50.1000°N, 7.7333°E)
Time: 07:28:44
(UTC+02:00)

ISS - Visible Passes

Search period start: 16 July 2024 00:00
Search period end: 26 July 2024 00:00
Orbit: 410 x 424 km, 51.6° (Epoch: 15 July)

Date Brightness Start Highest point End Pass type
(mag) Time Alt. Az. Time Alt. Az. Time Alt. Az.
16 Jul -3.1 01:27:40 10° WNW 01:30:10 41° WSW 01:30:10 41° WSW visible
16 Jul -3.4 23:02:31 10° W 23:05:48 64° N 23:09:07 10° E visible
17 Jul -3.9 00:39:19 10° WNW 00:42:38 71° SSW 00:43:05 59° SE visible
17 Jul -3.4 22:14:07 10° W 22:17:25 66° N 22:20:44 10° E visible
17 Jul -3.9 23:50:58 10° WNW 23:54:18 89° N 23:56:04 25° ESE visible
18 Jul -1.6 01:27:57 10° W 01:28:55 16° W 01:28:55 16° W visible
18 Jul -3.6 23:02:34 10° WNW 23:05:53 75° N 23:09:04 11° E visible
19 Jul -2.9 00:39:24 10° W 00:41:56 34° WSW 00:41:56 34° WSW visible
19 Jul -3.4 22:14:06 10° WNW 22:17:25 67° N 22:20:44 10° E visible
19 Jul -3.6 23:50:54 10° WNW 23:54:09 54° SSW 23:54:57 41° SSE visible
20 Jul -3.9 23:02:24 10° WNW 23:05:42 74° SSW 23:07:57 19° ESE visible
21 Jul -1.6 00:39:37 10° W 00:40:50 16° WSW 00:40:50 16° WSW visible
21 Jul -3.8 22:13:51 10° WNW 22:17:11 87° NNE 22:20:31 10° ESE visible
21 Jul -2.6 23:50:48 10° W 23:53:41 28° SW 23:53:50 27° SSW visible
22 Jul -3.1 23:02:06 10° W 23:05:14 40° SSW 23:06:51 23° SSE visible
23 Jul -3.5 22:13:25 10° WNW 22:16:41 57° SSW 22:19:52 11° SE visible
23 Jul -1.5 23:51:08 10° WSW 23:52:44 13° SW 23:52:44 13° SW visible
24 Jul -2.0 23:01:53 10° W 23:04:25 20° SW 23:05:45 16° S visible
25 Jul -2.5 22:12:55 10° W 22:15:52 29° SSW 22:18:46 10° SSE visible
